Meacham, OR

8:17 AM PDT on March 30, 2017 (GMT -0700)
Meacham

Weather History for KMEH - November, 2012

Change the Weather History Date:

Sunday, November 25, 2012

  Actual Average Record
Temperature  
Mean Temperature 28 °F -  
Max Temperature 35 °F 38 °F 53 °F (2002)
Min Temperature 21 °F 23 °F 5 °F (2010)
Degree Days  
Heating Degree Days 37    
Moisture  
Dew Point 30 °F    
Average Humidity 91    
Maximum Humidity 96    
Minimum Humidity 78    
Precipitation  
Precipitation 0.03 in - - ()
Sea Level Pressure  
Sea Level Pressure 30.18 in    
Wind  
Wind Speed 0 mph (North)    
Max Wind Speed 5 mph    
Max Gust Speed -    
Visibility 9 miles    
Events Snow    
Averages and records for this station are not official NWS values.
T = Trace of Precipitation, MM = Missing Value Source: NWS Daily Summary

Daily Weather History Graph

Daily Weather History Graph

Search for Another Location

Airport or City:

Trip Planner

Search our weather history database for the weather conditions in past years. The results will help you decide how hot, cold, wet, or windy it might be!

Date:

Astronomy

Nov. 25, 2012 Rise Set
Actual Time 7:06 AM PST 4:14 PM PST
Civil Twilight 6:33 AM PST 4:47 PM PST
Nautical Twilight 5:57 AM PST 5:24 PM PST
Astronomical Twilight 5:21 AM PST 5:59 PM PST
Moon 2:38 PM PST (11/25) 4:19 AM PST (11/25)
Length of Visible Light 10h 13m
Length of Day
9h 07m
Waxing Gibbous, 93% of the Moon is Illuminated
Nov 25
Waxing Gibbous
Nov 28
Full
Dec 6
Last Quarter
Dec 13
New
Dec 19
First Quarter

Hourly Weather History & Observations

Time (PST) Temp. Windchill Dew Point Humidity Pressure Visibility Wind Dir Wind Speed Gust Speed Precip Events Conditions
12:14 AM 33.8 °F - 32.0 °F 93% 30.09 in 2.5 mi Calm Calm - 0.00 in Snow Light Snow
12:21 AM 33.8 °F - 32.0 °F 93% 30.08 in 1.8 mi Calm Calm - 0.01 in Snow Light Snow
12:36 AM 33.8 °F - 32.0 °F 93% 30.09 in 1.2 mi Calm Calm - 0.02 in Snow Light Snow
12:45 AM 33.8 °F - 32.0 °F 93% 30.09 in 1.2 mi Calm Calm - 0.03 in Snow Light Snow
12:55 AM 33.1 °F - 32.0 °F 96% 30.14 in 2.0 mi Calm Calm - 0.03 in Snow Light Snow
1:02 AM 33.8 °F - 32.0 °F 93% 30.09 in 6.0 mi Calm Calm - 0.00 in Snow Light Snow
1:49 AM 33.8 °F - 32.0 °F 93% 30.09 in 10.0 mi Calm Calm - 0.00 in   Overcast
1:56 AM 33.1 °F - 32.0 °F 96% 30.15 in 10.0 mi Calm Calm - 0.00 in   Overcast
2:11 AM 33.8 °F - 32.0 °F 93% 30.10 in 10.0 mi Calm Calm - N/A   Overcast
2:32 AM 33.8 °F - 32.0 °F 93% 30.10 in 10.0 mi Calm Calm - N/A   Overcast
2:56 AM 33.1 °F - 32.0 °F 96% 30.14 in 10.0 mi Calm Calm - N/A   Overcast
3:09 AM 33.8 °F 30.8 °F 32.0 °F 93% 30.09 in 10.0 mi Variable 3.5 mph - N/A   Overcast
3:28 AM 33.8 °F - 32.0 °F 93% 30.10 in 10.0 mi Calm Calm - N/A   Overcast
3:56 AM 33.1 °F - 32.0 °F 96% 30.16 in 10.0 mi Calm Calm - N/A   Overcast
4:17 AM 33.8 °F - 32.0 °F 93% 30.11 in 10.0 mi Calm Calm - N/A   Overcast
4:34 AM 33.8 °F - 30.2 °F 87% 30.11 in 10.0 mi Calm Calm - N/A   Overcast
4:41 AM 33.8 °F - 30.2 °F 87% 30.12 in 10.0 mi Calm Calm - N/A   Overcast
4:56 AM 32.0 °F - 30.9 °F 96% 30.18 in 10.0 mi Calm Calm - N/A   Overcast
5:09 AM 32.0 °F - 30.2 °F 93% 30.12 in 10.0 mi Calm Calm - N/A   Overcast
5:41 AM 32.0 °F - 30.2 °F 93% 30.13 in 10.0 mi Calm Calm - N/A   Overcast
5:47 AM 32.0 °F - 30.2 °F 93% 30.13 in 10.0 mi Calm Calm - N/A   Overcast
5:56 AM 32.0 °F - 30.9 °F 96% 30.19 in 9.0 mi Calm Calm - 0.00 in   Overcast
6:03 AM 32.0 °F - 30.2 °F 93% 30.13 in 9.0 mi Calm Calm - 0.00 in   Overcast
6:13 AM 32.0 °F - 30.2 °F 93% 30.13 in 10.0 mi Calm Calm - 0.00 in   Overcast
6:20 AM 32.0 °F - 30.2 °F 93% 30.14 in 10.0 mi Calm Calm - 0.00 in   Overcast
6:30 AM 32.0 °F - 30.2 °F 93% 30.14 in 10.0 mi Calm Calm - 0.00 in   Overcast
6:37 AM 32.0 °F - 30.2 °F 93% 30.14 in 10.0 mi Calm Calm - 0.00 in   Overcast
6:46 AM 32.0 °F - 30.2 °F 93% 30.14 in 10.0 mi Calm Calm - 0.00 in   Overcast
6:56 AM 32.0 °F - 30.9 °F 96% 30.21 in 10.0 mi Calm Calm - 0.00 in   Overcast
7:03 AM 32.0 °F - 30.2 °F 93% 30.14 in 10.0 mi Calm Calm - N/A   Overcast
7:16 AM 32.0 °F - 30.2 °F 93% 30.14 in 10.0 mi Calm Calm - N/A   Overcast
7:56 AM 32.0 °F - 30.0 °F 92% 30.22 in 10.0 mi Calm Calm - N/A   Overcast
8:24 AM 32.0 °F - 30.2 °F 93% 30.15 in 10.0 mi Calm Calm - N/A   Overcast
8:56 AM 33.1 °F - 30.0 °F 89% 30.23 in 10.0 mi Calm Calm - N/A   Overcast
9:14 AM 33.8 °F - 30.2 °F 87% 30.17 in 10.0 mi Calm Calm - N/A   Overcast
9:32 AM 33.8 °F - 30.2 °F 87% 30.18 in 10.0 mi Calm Calm - N/A   Overcast
9:56 AM 33.1 °F - 30.0 °F 89% 30.25 in 10.0 mi Calm Calm - N/A   Mostly Cloudy
10:13 AM 33.8 °F - 30.2 °F 87% 30.18 in 10.0 mi Calm Calm - N/A   Mostly Cloudy
10:56 AM 35.1 °F - 30.0 °F 82% 30.25 in 10.0 mi Calm Calm - N/A   Overcast
11:13 AM 35.6 °F - 30.2 °F 81% 30.18 in 10.0 mi Calm Calm - N/A   Overcast
11:56 AM 35.1 °F - 30.0 °F 82% 30.25 in 10.0 mi Calm Calm - N/A   Overcast
12:32 PM 35.6 °F - 30.2 °F 81% 30.18 in 10.0 mi Calm Calm - N/A   Mostly Cloudy
12:42 PM 33.8 °F - 30.2 °F 87% 30.18 in 10.0 mi Calm Calm - N/A   Mostly Cloudy
12:56 PM 34.0 °F - 30.0 °F 85% 30.25 in 10.0 mi Calm Calm - N/A   Scattered Clouds
1:56 PM 35.1 °F 31.0 °F 28.9 °F 78% 30.25 in 10.0 mi North 4.6 mph - N/A   Clear
2:56 PM 30.9 °F - 28.9 °F 92% 30.27 in 10.0 mi Calm Calm - N/A   Clear
3:56 PM 30.9 °F - 28.0 °F 89% 30.27 in 10.0 mi Calm Calm - N/A   Clear
4:56 PM 28.9 °F - 27.0 °F 92% 30.27 in 10.0 mi Calm Calm - N/A   Clear
5:35 PM 28.4 °F - 26.6 °F 93% 30.20 in 8.0 mi Calm Calm - N/A   Partly Cloudy
5:56 PM 28.0 °F - 26.1 °F 92% 30.28 in 8.0 mi Calm Calm - N/A   Partly Cloudy
6:56 PM 27.0 °F - 25.0 °F 92% 30.28 in 10.0 mi Calm Calm - N/A   Clear
7:56 PM 25.0 °F - 23.0 °F 92% 30.30 in 10.0 mi Calm Calm - N/A   Clear
8:56 PM 24.1 °F - 21.9 °F 91% 30.29 in 10.0 mi Calm Calm - N/A   Clear
9:56 PM 23.0 °F - 21.0 °F 92% 30.29 in 10.0 mi Calm Calm - N/A   Clear
10:56 PM 21.9 °F - 19.9 °F 92% 30.29 in 10.0 mi Calm Calm - N/A   Clear
11:56 PM 21.9 °F - 19.0 °F 89% 30.27 in 10.0 mi Calm Calm - N/A   Clear